Showing default

POLYITAN 1, 40042

Orbit data source: Space-Track

POLYITAN 1, 40042 is a payload satellite owned by Kyiv Polytechnic (UA) in SSO that was launched on Thu, 19 Jun 2014 UTC via a DNEPR launch vehicle from the Orenburg, Russia (OREN). Payload-class satellites include a variety of spacecraft equipped with specific instruments for various scientific and technological missions. These include communications satellites like Starlink; space stations such as the ISS; scientific satellites like the Hubble; Earth observation satellites from companies like Planet Labs, Umbra, and HawkEye 360; GPS; miniature CubeSats for education and research; and military/defense satellites.

Loading next visibility...
Identifier
40042, 2014-033AJ
Orbit
SSO
Country
Flag of UAUA / UKR
Related business
Manufacturer
Kyiv Polytechnic
Mission
Operational Commercial Technology
Bus & Motor
CUBESAT 1U, Unknown motor
Mass
1 kg wet, 1 kg dry
Launch date (UTC)
2014-06-19 (11 years ago)
Launch vehicle
DNEPR
Launch site
Orenburg, Russia (OREN)
Object type
Payload
Rocket body
Debris
Shape & HBR
Box, 0.1 m
Radar Cross Section
0.015 m², Small (<0.1 m²)

Expand to show TLE details & history
Last TLE update: 17 hours ago

TLE from 17 hours ago
0 POLYITAN 1
1 40042U 14033AJ  25308.74922453  .00017848  00000-0  74516-3 0  9999
2 40042  98.1085 310.2157 0007519 194.8929 165.2086 15.23697337619309
Epoch: 2025-11-04T17:58Z
TLE epoch observation values (Epoch: 2025-11-04T17:58:52.999Z)
Latitude
0.00001°
Longitude
-3.73691°
Altitude
502.772 km
Speed
7.61 km/s
True Right ascension
20h 40m 51s
True Declination
0° 00' 00"
Sunlit
Object was in daylight at epoch
Visualization orbit readout
Latitude
Unknown
Longitude
Unknown
Altitude
Unknown
Speed
Unknown
Apparent Right ascension
Unknown
Apparent Declination
Unknown
Sunlit
N/A
Visualization observer readout
Local Sidereal Time
07:07:59
Azimuth
Unknown
Elevation
Unknown
Doppler factor
Unknown
Orbital elements
Apogee altitude
496.858 km
Perigee altitude
486.527 km
Semi-major axis
6,869.829 km
Eccentricity
0.00075
Inclination
98.1085°
RAAN
310.2157°
Arg. of periapsis
194.8929°
True anomaly
165.23058°
Mean anomaly
165.2086°
Eccentric anomaly
165.21959°
Mean motion
3.81175 °/min
Orbital period
94.44 mins
BSTAR
0.00074516
Loading maneuver chart data...
Computing Atmospheric mass density...
Loading historical data...
Loading historical data...
Loading historical data...
Loading historical data...
Loading historical data...
Loading historical data...
Loading historical data...

Documentation

Showing up to 5 results
|